This is the latest recevied weather packets stored in our database for station/object K6POO-1. If no packets are shown the sender has not sent any weather packets the latest 10 day(s).
| Time | Temp. | Humidity | Pressure | Rain* | Wind** | Luminosity | Snow |
|---|---|---|---|---|---|---|---|
| 1787890065 | 17.22° C | 76% | 1014.6 hPa | 0 mm | - | 0 W/m² | - |
| 1787889759 | 17.22° C | 75% | 1014.5 hPa | 0 mm | - | 0 W/m² | - |
| 1787889455 | 17.22° C | 75% | 1014.7 hPa | 0 mm | - | 0 W/m² | - |
| 1787889154 | 17.78° C | 75% | 1014.6 hPa | 0 mm | - | 0 W/m² | - |
| 1787888849 | 17.78° C | 74% | 1014.6 hPa | 0 mm | - | 0 W/m² | - |
| 1787888545 | 17.78° C | 74% | 1014.7 hPa | 0 mm | - | 0 W/m² | - |
| 1787888244 | 17.78° C | 73% | 1014.5 hPa | 0 mm | - | 0 W/m² | - |
| 1787887940 | 17.78° C | 73% | 1014.6 hPa | 0 mm | - | 0 W/m² | - |
| 1787887636 | 18.33° C | 73% | 1014.7 hPa | 0 mm | - | 0 W/m² | - |
| 1787887331 | 18.33° C | 73% | 1014.3 hPa | 0 mm | - | 0 W/m² | - |
| 1787887031 | 18.33° C | 72% | 1014.5 hPa | 0 mm | - | 0 W/m² | - |
| 1787886726 | 18.33° C | 72% | 1014.1 hPa | 0 mm | - | 0 W/m² | - |
| 1787886420 | 18.33° C | 72% | 1014.1 hPa | 0 mm | - | 0 W/m² | - |
| 1787886117 | 18.89° C | 71% | 1014.3 hPa | 0 mm | - | 0 W/m² | - |
| 1787885815 | 18.89° C | 70% | 1014.2 hPa | 0 mm | - | 1 W/m² | - |
| 1787885514 | 18.89° C | 70% | 1014 hPa | 0 mm | - | 3 W/m² | - |
| 1787885213 | 18.89° C | 70% | 1013.9 hPa | 0 mm | - | 6 W/m² | - |
| 1787884912 | 18.89° C | 71% | 1013.7 hPa | 0 mm | - | 5 W/m² | - |
| 1787884608 | 18.89° C | 71% | 1013.7 hPa | 0 mm | - | 7 W/m² | - |
| 1787884304 | 19.44° C | 70% | 1013.8 hPa | 0 mm | - | 10 W/m² | - |
| 1787883999 | 19.44° C | 70% | 1014 hPa | 0 mm | - | 13 W/m² | - |
| 1787883694 | 19.44° C | 68% | 1013.7 hPa | 0 mm | - | 16 W/m² | - |
| 1787883390 | 19.44° C | 67% | 1013.9 hPa | 0 mm | - | 20 W/m² | - |
| 1787883088 | 20° C | 68% | 1013.9 hPa | 0 mm | - | 26 W/m² | - |
| 1787882784 | 20° C | 68% | 1013.9 hPa | 0 mm | - | 33 W/m² | - |
* Rain latest hour (hover to see other rain measurements)
** Current wind speed in m/s (hover to see current wind gust speed)